Directory Listing
Index of /dewikinews/20260101/

Index of /dewikinews/20260101/


../
dewikinews-20260101-all-titles-in-ns0.gz           02-Jan-2026 05:04    319K
dewikinews-20260101-all-titles.gz                  02-Jan-2026 05:04    868K
dewikinews-20260101-babel.sql.gz                   02-Jan-2026 04:30    1750
dewikinews-20260101-category.sql.gz                02-Jan-2026 04:30    177K
dewikinews-20260101-categorylinks.sql.gz           02-Jan-2026 04:30      2M
dewikinews-20260101-change_tag.sql.gz              02-Jan-2026 04:30    259K
dewikinews-20260101-change_tag_def.sql.gz          02-Jan-2026 04:30    1329
dewikinews-20260101-externallinks.sql.gz           02-Jan-2026 04:30      2M
dewikinews-20260101-geo_tags.sql.gz                02-Jan-2026 04:30     884
dewikinews-20260101-image.sql.gz                   02-Jan-2026 04:29    6581
dewikinews-20260101-imagelinks.sql.gz              02-Jan-2026 04:30    368K
dewikinews-20260101-iwlinks.sql.gz                 02-Jan-2026 04:30      1M
dewikinews-20260101-langlinks.sql.gz               02-Jan-2026 04:30    766K
dewikinews-20260101-linktarget.sql.gz              02-Jan-2026 04:30   1016K
dewikinews-20260101-md5sums.json                   02-Jan-2026 05:25    3068
dewikinews-20260101-md5sums.txt                    02-Jan-2026 05:25    2858
dewikinews-20260101-page.sql.gz                    02-Jan-2026 04:30      2M
dewikinews-20260101-page_props.sql.gz              02-Jan-2026 04:30    438K
dewikinews-20260101-page_restrictions.sql.gz       02-Jan-2026 04:30    127K
dewikinews-20260101-pagelinks.sql.gz               02-Jan-2026 04:29    761K
dewikinews-20260101-pages-articles-multistream-..> 02-Jan-2026 05:02    510K
dewikinews-20260101-pages-articles-multistream...> 02-Jan-2026 05:02     21M
dewikinews-20260101-pages-articles.xml.bz2         02-Jan-2026 04:39     18M
dewikinews-20260101-pages-logging.xml.gz           02-Jan-2026 05:04      4M
dewikinews-20260101-pages-meta-current.xml.bz2     02-Jan-2026 05:03     26M
dewikinews-20260101-pages-meta-history.xml.7z      02-Jan-2026 05:24    111M
dewikinews-20260101-pages-meta-history.xml.bz2     02-Jan-2026 05:22    321M
dewikinews-20260101-protected_titles.sql.gz        02-Jan-2026 04:30    2332
dewikinews-20260101-redirect.sql.gz                02-Jan-2026 04:30     10K
dewikinews-20260101-runsettings.txt                01-Jan-2026 10:24      28
dewikinews-20260101-sha1sums.json                  02-Jan-2026 05:25    3373
dewikinews-20260101-sha1sums.txt                   02-Jan-2026 05:25    3162
dewikinews-20260101-site_stats.sql.gz              02-Jan-2026 04:29     843
dewikinews-20260101-siteinfo-namespaces.json.gz    02-Jan-2026 05:04    6627
dewikinews-20260101-siteinfo2-namespacesv2.json.gz 02-Jan-2026 05:04    6889
dewikinews-20260101-sites.sql.gz                   02-Jan-2026 04:30     23K
dewikinews-20260101-stub-articles.xml.gz           01-Jan-2026 10:32      4M
dewikinews-20260101-stub-meta-current.xml.gz       01-Jan-2026 10:32      6M
dewikinews-20260101-stub-meta-history.xml.gz       01-Jan-2026 10:32     60M
dewikinews-20260101-templatelinks.sql.gz           02-Jan-2026 04:30    283K
dewikinews-20260101-user_former_groups.sql.gz      02-Jan-2026 04:30     880
dewikinews-20260101-user_groups.sql.gz             02-Jan-2026 04:30     948
dewikinews-20260101-wbc_entity_usage.sql.gz        02-Jan-2026 04:30    279K
dumpruninfo.json                                   02-Jan-2026 05:25    2562
dumpruninfo.txt                                    02-Jan-2026 05:25    2202
dumpspecialfiles.json                              02-Jan-2026 05:25     131
dumpstatus.json                                    02-Jan-2026 05:25     11K
md5sums-dewikinews-20260101-all-titles-in-ns0.g..> 02-Jan-2026 05:04      75
md5sums-dewikinews-20260101-all-titles.gz.txt      02-Jan-2026 05:04      68
md5sums-dewikinews-20260101-babel.sql.gz.txt       02-Jan-2026 04:30      67
md5sums-dewikinews-20260101-category.sql.gz.txt    02-Jan-2026 04:30      70
md5sums-dewikinews-20260101-categorylinks.sql.g..> 02-Jan-2026 04:30      75
md5sums-dewikinews-20260101-change_tag.sql.gz.txt  02-Jan-2026 04:30      72
md5sums-dewikinews-20260101-change_tag_def.sql...> 02-Jan-2026 04:30      76
md5sums-dewikinews-20260101-externallinks.sql.g..> 02-Jan-2026 04:30      75
md5sums-dewikinews-20260101-geo_tags.sql.gz.txt    02-Jan-2026 04:30      70
md5sums-dewikinews-20260101-image.sql.gz.txt       02-Jan-2026 04:29      67
md5sums-dewikinews-20260101-imagelinks.sql.gz.txt  02-Jan-2026 04:30      72
md5sums-dewikinews-20260101-iwlinks.sql.gz.txt     02-Jan-2026 04:30      69
md5sums-dewikinews-20260101-langlinks.sql.gz.txt   02-Jan-2026 04:30      71
md5sums-dewikinews-20260101-linktarget.sql.gz.txt  02-Jan-2026 04:30      72
md5sums-dewikinews-20260101-page.sql.gz.txt        02-Jan-2026 04:30      66
md5sums-dewikinews-20260101-page_props.sql.gz.txt  02-Jan-2026 04:30      72
md5sums-dewikinews-20260101-page_restrictions.s..> 02-Jan-2026 04:30      79
md5sums-dewikinews-20260101-pagelinks.sql.gz.txt   02-Jan-2026 04:30      71
md5sums-dewikinews-20260101-pages-articles-mult..> 02-Jan-2026 05:02      95
md5sums-dewikinews-20260101-pages-articles-mult..> 02-Jan-2026 05:02      89
md5sums-dewikinews-20260101-pages-articles.xml...> 02-Jan-2026 04:39      77
md5sums-dewikinews-20260101-pages-logging.xml.g..> 02-Jan-2026 05:04      75
md5sums-dewikinews-20260101-pages-meta-current...> 02-Jan-2026 05:04      81
md5sums-dewikinews-20260101-pages-meta-history...> 02-Jan-2026 05:25      80
md5sums-dewikinews-20260101-pages-meta-history...> 02-Jan-2026 05:22      81
md5sums-dewikinews-20260101-protected_titles.sq..> 02-Jan-2026 04:30      78
md5sums-dewikinews-20260101-redirect.sql.gz.txt    02-Jan-2026 04:30      70
md5sums-dewikinews-20260101-site_stats.sql.gz.txt  02-Jan-2026 04:29      72
md5sums-dewikinews-20260101-siteinfo-namespaces..> 02-Jan-2026 05:04      82
md5sums-dewikinews-20260101-siteinfo2-namespace..> 02-Jan-2026 05:04      85
md5sums-dewikinews-20260101-sites.sql.gz.txt       02-Jan-2026 04:30      67
md5sums-dewikinews-20260101-stub-articles.xml.g..> 01-Jan-2026 10:32      75
md5sums-dewikinews-20260101-stub-meta-current.x..> 01-Jan-2026 10:32      79
md5sums-dewikinews-20260101-stub-meta-history.x..> 01-Jan-2026 10:32      79
md5sums-dewikinews-20260101-templatelinks.sql.g..> 02-Jan-2026 04:30      75
md5sums-dewikinews-20260101-user_former_groups...> 02-Jan-2026 04:30      80
md5sums-dewikinews-20260101-user_groups.sql.gz.txt 02-Jan-2026 04:30      73
md5sums-dewikinews-20260101-wbc_entity_usage.sq..> 02-Jan-2026 04:30      78
report.json                                        02-Jan-2026 05:25    6231
sha1sums-dewikinews-20260101-all-titles-in-ns0...> 02-Jan-2026 05:04      83
sha1sums-dewikinews-20260101-all-titles.gz.txt     02-Jan-2026 05:04      76
sha1sums-dewikinews-20260101-babel.sql.gz.txt      02-Jan-2026 04:30      75
sha1sums-dewikinews-20260101-category.sql.gz.txt   02-Jan-2026 04:30      78
sha1sums-dewikinews-20260101-categorylinks.sql...> 02-Jan-2026 04:30      83
sha1sums-dewikinews-20260101-change_tag.sql.gz.txt 02-Jan-2026 04:30      80
sha1sums-dewikinews-20260101-change_tag_def.sql..> 02-Jan-2026 04:30      84
sha1sums-dewikinews-20260101-externallinks.sql...> 02-Jan-2026 04:30      83
sha1sums-dewikinews-20260101-geo_tags.sql.gz.txt   02-Jan-2026 04:30      78
sha1sums-dewikinews-20260101-image.sql.gz.txt      02-Jan-2026 04:29      75
sha1sums-dewikinews-20260101-imagelinks.sql.gz.txt 02-Jan-2026 04:30      80
sha1sums-dewikinews-20260101-iwlinks.sql.gz.txt    02-Jan-2026 04:30      77
sha1sums-dewikinews-20260101-langlinks.sql.gz.txt  02-Jan-2026 04:30      79
sha1sums-dewikinews-20260101-linktarget.sql.gz.txt 02-Jan-2026 04:30      80
sha1sums-dewikinews-20260101-page.sql.gz.txt       02-Jan-2026 04:30      74
sha1sums-dewikinews-20260101-page_props.sql.gz.txt 02-Jan-2026 04:30      80
sha1sums-dewikinews-20260101-page_restrictions...> 02-Jan-2026 04:30      87
sha1sums-dewikinews-20260101-pagelinks.sql.gz.txt  02-Jan-2026 04:30      79
sha1sums-dewikinews-20260101-pages-articles-mul..> 02-Jan-2026 05:02     103
sha1sums-dewikinews-20260101-pages-articles-mul..> 02-Jan-2026 05:02      97
sha1sums-dewikinews-20260101-pages-articles.xml..> 02-Jan-2026 04:39      85
sha1sums-dewikinews-20260101-pages-logging.xml...> 02-Jan-2026 05:04      83
sha1sums-dewikinews-20260101-pages-meta-current..> 02-Jan-2026 05:04      89
sha1sums-dewikinews-20260101-pages-meta-history..> 02-Jan-2026 05:25      88
sha1sums-dewikinews-20260101-pages-meta-history..> 02-Jan-2026 05:22      89
sha1sums-dewikinews-20260101-protected_titles.s..> 02-Jan-2026 04:30      86
sha1sums-dewikinews-20260101-redirect.sql.gz.txt   02-Jan-2026 04:30      78
sha1sums-dewikinews-20260101-site_stats.sql.gz.txt 02-Jan-2026 04:29      80
sha1sums-dewikinews-20260101-siteinfo-namespace..> 02-Jan-2026 05:04      90
sha1sums-dewikinews-20260101-siteinfo2-namespac..> 02-Jan-2026 05:04      93
sha1sums-dewikinews-20260101-sites.sql.gz.txt      02-Jan-2026 04:30      75
sha1sums-dewikinews-20260101-stub-articles.xml...> 01-Jan-2026 10:32      83
sha1sums-dewikinews-20260101-stub-meta-current...> 01-Jan-2026 10:32      87
sha1sums-dewikinews-20260101-stub-meta-history...> 01-Jan-2026 10:32      87
sha1sums-dewikinews-20260101-templatelinks.sql...> 02-Jan-2026 04:30      83
sha1sums-dewikinews-20260101-user_former_groups..> 02-Jan-2026 04:30      88
sha1sums-dewikinews-20260101-user_groups.sql.gz..> 02-Jan-2026 04:30      81
sha1sums-dewikinews-20260101-wbc_entity_usage.s..> 02-Jan-2026 04:30      86
status.html                                        02-Jan-2026 05:25     115
tableinfo.json                                     01-Jan-2026 08:23    1495